Weather Roundup
Issued by NWS Springfield, MO

Home | Current Version | Previous Version | Text Only | Print | Product List | Glossary On
Versions: 1 2 3 4 5 6 7 8 9 10 11 12 13 14 15 16 17 18 19 20 21 22 23 24 25 26 27 28 29 30 31 32 33 34 35 36 37 38 39 40 41 42 43 44 45 46 47 48 49 50
000
NZUS99 KSGF 062207
HRRSGF

HOURLY WEATHER
NATIONAL WEATHER SERVICE SPRINGFIELD MO
500 PM CDT WED MAY 06 2015

......SGF CWA......

CITY           SKY/WX    TMP DP  RH WIND       PRES   REMARKS
SPRINGFIELD    SUNNY     77  54  44 SE20G31   29.98F
JOPLIN         PTSUNNY   78  56  46 S20G30    29.92S
WEST PLAINS    PTSUNNY   79  52  38 SE10G20   30.04F
ROLLA          MOSUNNY   78  54  43 S15       30.00F
OSAGE BEACH    PTSUNNY   81  55  41 S12       29.98F
BRANSON        MOSUNNY   79  55  44 SE13G21   30.01F

......SURROUNDING SGF CWA......

CITY           SKY/WX    TMP DP  RH WIND       PRES   REMARKS
CHANUTE        LGT RAIN  76  63  64 S22G30    29.87F
PARSONS        PTSUNNY   77  64  64 S10G22    29.88F
COFFEYVILLE    MOSUNNY   77  62  59 S20G29    29.87
EMPORIA        CLOUDY    71  64  78 S21G33    29.80F
GROVE OK       PTSUNNY   81  55  41 S13G21    29.93F
ROGERS AR      MOSUNNY   77  56  48 S13G28    29.99S
SILOAM SPRINGS MOSUNNY   75  55  50 S14       29.97F
HARRISON AR    PTSUNNY   77  56  48 S17       30.01F
NEAR YELLVILLE PTSUNNY   79  55  44 S7        29.99F

......KANSAS AND MISSOURI......

CITY           SKY/WX    TMP DP  RH WIND       PRES   REMARKS
KANSAS CTY INT CLOUDY    66  61  84 SE14      29.90F
DOWNTOWN KC    CLOUDY    69  62  78 E7        29.90F
COLUMBIA       PTSUNNY   78  59  51 S8        29.98F
SEDALIA        PTSUNNY   78  59  51 S22G28    29.96F
ST JOSEPH      CLOUDY    70  58  65 S29G35    29.88F
ST LOUIS       MOSUNNY   86  53  32 S10G24    30.02F
SPIRIT OF STL  MOSUNNY   83  51  33 SE12G23   30.00F
KIRKSVILLE     PTSUNNY   73  60  63 S15       29.99F
WICHITA        PTSUNNY   74  66  76 SE30G36   29.73F
TOPEKA         CLOUDY    72  62  71 SE22G29   29.83F
OLATHE         PTSUNNY   70  65  84 SE13G21   29.89F

......TENNESSEE......

CITY           SKY/WX    TMP DP  RH WIND       PRES   REMARKS
MEMPHIS        MOSUNNY   82  51  34 S13       30.06S
NASHVILLE      MOSUNNY   83  51  33 CALM      30.09F

......ARKANSAS.......

CITY           SKY/WX    TMP DP  RH WIND       PRES   REMARKS
FAYETTEVILLE   PTSUNNY   76  68  76 S17       29.98F
FT SMITH       MOSUNNY   80  54  40 SE9G18    29.94F
LITTLE ROCK    PTSUNNY   83  54  36 S13       30.00F

......OKLAHOMA.......

CITY           SKY/WX    TMP DP  RH WIND       PRES   REMARKS
TULSA          PTSUNNY   78  66  66 SE17G28   29.85F
PONCA CITY     PTSUNNY   74  66  76 S18G26    29.79F
MCALESTER      MOSUNNY   80  66  62 S13G21    29.91F
OKLAHOMA CITY  TSTM      71  67  87 S15G25    29.82S

......IOWA............

CITY           SKY/WX    TMP DP  RH WIND       PRES   REMARKS
DES MOINES     CLOUDY    73  57  57 S15G25    29.90F
QUAD CITIES    PTSUNNY   82  53  36 S16G22    29.98F

......ILLINOIS........

CITY           SKY/WX    TMP DP  RH WIND       PRES   REMARKS
QUINCY         CLOUDY    74  60  61 S3        30.00F
CHICAGO        PTSUNNY   69  56  62 E10       30.08F



USA.gov is the U.S. government's official web portal to all federal, state and local government web resources and services.